Home > Weather > Selkirk > Past weeks

Flag for Canada Past Weather in Selkirk, Manitoba, Canada — Yesterday and Last 2 Weeks

Now
56 °F

Cool.


Feels Like: 55 °F
Forecast: 56 / 69 °F
Wind: 7 mph from North

Location: Winnipeg The Forks Man

Current Time: Aug 25, 2016 at 6:54:12 AM

Latest Report: Aug 25, 2016 at 6:00 AM


Visibility: N/A

Pressure: 29.87 "Hg

Humidity: 93%

Dew Point: 54 °F

Location of SelkirkLocation

Past Weather in Selkirk — Graph

°F

Selkirk Temperature Yesterday

Maximum temperature yesterday: 73 °F (at 5:00 PM)
Minimum temperature yesterday: 59 °F (at 7:00 AM)
Average temperature yesterday: 67 °F

High & Low Weather Summary for the Past Weeks

 TemperatureHumidityPressure
High87 °F (Aug 17, 6:00 PM)94% (Aug 12, 7:00 AM)30.01 "Hg (Aug 12, 7:00 AM)
Low53 °F (Aug 21, 6:00 AM)28% (Aug 18, 5:00 PM)29.59 "Hg (Aug 23, 7:00 PM)
Average69 °F67%29.85 "Hg
* Reported Aug 10 5:00 AM — Aug 25 5:00 AM, Selkirk, Weather by CustomWeather, © 2016

Note: Actual official high and low records may vary slightly from our data, if they occured in-between our weather recording intervals... More about our weather records

Advertising

Selkirk Weather History for the Previous 24 Hours

Scroll right to see more
 ConditionsComfort  
Time TempWeatherWind HumidityBarometerVisibility
5:00 AM
Thu, Aug 25
57 °FCool.8 mph92%29.85 "HgN/A
4:00 AM59 °FCool.7 mph88%29.83 "HgN/A
3:00 AM60 °FCool.3 mph89%29.81 "HgN/A
2:00 AM61 °FCool.3 mph89%29.80 "HgN/A
1:00 AM61 °FCool.2 mph82%29.80 "HgN/A
12:00 AM62 °FCool.5 mph71%29.80 "HgN/A
11:00 PM
Wed, Aug 24
64 °FMild.3 mph66%29.80 "HgN/A
10:00 PM67 °FMild.3 mph60%29.80 "HgN/A
9:00 PM68 °FMild.3 mph58%29.80 "HgN/A
8:00 PM69 °FMild.5 mph55%29.79 "HgN/A
7:00 PM71 °FMild.7 mph46%29.79 "HgN/A
6:00 PM72 °FMild.8 mph45%29.78 "HgN/A
5:00 PM73 °FMild.3 mph45%29.78 "HgN/A
4:00 PM71 °FMild.7 mph46%29.78 "HgN/A
3:00 PM71 °FMild.6 mph47%29.78 "HgN/A
2:00 PM71 °FMild.8 mph48%29.78 "HgN/A
1:00 PM71 °FMild.5 mph50%29.78 "HgN/A
12:00 PM69 °FMild.7 mph51%29.77 "HgN/A
11:00 AM67 °FMild.7 mph58%29.76 "HgN/A
10:00 AM64 °FMild.6 mph68%29.74 "HgN/A
9:00 AM65 °FMild.6 mph63%29.73 "HgN/A
8:00 AM62 °FMild.5 mph67%29.73 "HgN/A
7:00 AM59 °FCool.3 mph84%29.74 "HgN/A
6:00 AM62 °FMild.3 mph87%29.71 "HgN/A
Weather by CustomWeather, © 2016

See weather overviewHow to use our weather pages